Content
SEND FEEDBACK

Daily
Averages
Monthly
Summary
Mauritania

PORT-ETIENNE, MAURITANIA


Home > Africa > Mauritania
Elevation: 10 feet     Latitude: 20 54N     Longitude: 017 06W

WEATHER
 
SELECT A DAY
Number of Records: 117,602;   Date Range: 7/1/96 - 7/23/14
 
SHARE

PRINT THIS DATA

[ ← Previous Day ]
WEATHER ALMANAC - JANUARY 28, 2013
[ Next Day → ]
[ °C ]   °F
Weather ElementAverageHighLow
Temperature66.7 °F83 °F (3:00 pm)60 °F (6:00 am)
Dewpoint55.2 °F62 °F (9:00 pm)29 °F (3:00 pm)
Humidity69 %88 % (4:00 am)7 % (3:00 pm)
Barometer30.12 in30.17 in (12:00 pm)30.06 in (4:00 pm)
Wind Speed12.7 mph17.3 mph (2:00 am)
Weather ElementAverage
Visibility5 mi
Wind DirectionSSW (204.8 °)

Weather ElementTotal
Precipitation---
Cooling Degree Days6.5 (Base 65)
Growing Degree Days21.5 (Base 50)
Averaged from 25 records on January 28, 2013
WEATHER CONDITIONS BREAKOUT
WIND DIRECTION BREAKOUT
WEATHER BY HOUR - JANUARY 28, 2013
[ °C ]   °F
Local TimeTemperatureDewpointHumidityBarometerVisibilityWind DirectionWind SpeedGust SpeedPrecipitationEventsConditions
12:00 AM64.4 °F57.2 °F77 %30.15 in5.0 miNorth (360°)16.1 mph
1:00 AM62.6 °F57.2 °F82 %30.12 in5.0 miNorth (360°)16.1 mph
2:00 AM62.6 °F57.2 °F82 %30.12 in5.0 miNNE (20°)17.3 mph
3:00 AM62.0 °F58.0 °F84 %30.14 in5.0 miNorth16.1 mph
3:00 AM62.6 °F57.2 °F82 %30.12 in5.0 miNorth (360°)16.1 mph
4:00 AM60.8 °F57.2 °F88 %30.12 in5.0 miNorth (360°)15.0 mph
5:00 AM60.8 °F57.2 °F88 %30.12 in5.0 miNorth (360°)15.0 mph
6:00 AM60.0 °F57.0 °F87 %30.13 in5.0 miNorth16.1 mph
6:00 AM60.8 °F55.4 °F82 %30.09 in5.0 miNNE (20°)15.0 mph
7:00 AM60.8 °F57.2 °F88 %30.12 in5.0 miNorth (360°)15.0 mph
8:00 AM60.8 °F55.4 °F82 %30.12 in5.0 miNorth (360°)13.8 mph
9:00 AM62.6 °F55.4 °F77 %30.15 in5.0 miNorth (360°)11.5 mph
9:00 AM63.0 °F56.0 °F70 %30.16 in5.0 miNorth (10°)11.5 mph
10:00 AM64.4 °F55.4 °F73 %30.15 in5.0 miNNE (30°)11.5 mph
11:00 AM68.0 °F55.4 °F64 %30.15 in5.0 miNNE (20°)11.5 mph
12:00 PM73.0 °F53.0 °F39 %30.17 in5.0 miNNE (20°)8.1 mph
12:00 PM71.6 °F53.6 °F53 %30.15 in5.0 miNNE (20°)9.2 mph
1:00 PM78.8 °F46.4 °F32 %30.12 in5.0 miNNE (20°)9.2 mph
3:00 PM83.0 °F29.0 °F7 %30.08 in5.0 miSouth (170°)5.8 mph
4:00 PM78.8 °F51.8 °F39 %30.06 inNW (310°)6.9 mphClear
5:00 PM75.2 °F57.2 °F53 %30.06 inNW (320°)10.4 mphClear
6:00 PM71.0 °F61.0 °F64 %30.09 in5.0 miNW (320°)11.5 mph
6:00 PM69.8 °F59.0 °F68 %30.06 in5.0 miNW (320°)13.8 mph
7:00 PM66.2 °F59.0 °F78 %30.09 inNNW (330°)12.7 mph
9:00 PM65.0 °F62.0 °F86 %30.14 in5.0 miNW (310°)11.5 mph
Hourly data recorded from GQPP, located miles away from Port-Etienne, Mauritania







STORIES FROM OUR PARTNERS